Volver al catálogo

THORAD AGENA D DEB

ActivoPO
NORAD 4913·DEBRIS·🇺🇸 United States

Lanzado Apr 8, 1970 desde Vandenberg Space Force Base

Loading…

Próximos Pases

TLE

Source: Space-Track
1 04913U 70025FK  26217.85831048  .00000355  00000-0  24563-3 0  9992
2 04913  99.8089 316.6584 0138317  66.2104 295.3492 14.01716177860943

Sigue THORAD AGENA D DEB en tiempo real con AllMySat

Download on the App Store